Wind_Speed
8 5 11 10 8 3 21 22 20 26 26 19 18 13 13 12 9 3 3 10 8 6 5 5 5 5 4 4 4 6 7 9 11 13 13 11 10 11 11 11 12 12 13 13 14 15 15 14 14
10 6 8 7 6 14 4 18 18 25 16 10 11 12 11 15 12 7 9 10 8 8 7 6 6 5 4 4 4 7 9 11 12 11 10 10 10 10 10 11 12 12 13 14 15 16 16 16 16
13 11 10 9 4 17 29 33 7 16 9 10 9 7 10 13 8 4 8 7 8 8 7 7 6 5 3 4 5 8 9 9 9 8 8 9 9 10 10 11 11 11 12 14 14 15 16 17 17
17 14 8 13 18 23 28 33 23 11 10 6 3 9 5 11 12 11 15 11 13 13 9 8 7 5 4 5 5 5 5 6 6 7 8 8 9 11 12 12 13 14 14 14 14 14 14 15 15
22 18 12 17 13 13 13 18 20 20 5 5 4 5 9 10 7 11 17 18 17 16 14 12 11 10 7 6 5 3 4 4 5 5 6 7 9 10 10 10 12 13 14 15 14 13 12 11 11
26 22 17 12 11 19 24 10 8 13 11 16 5 9 12 15 14 10 11 18 17 22 19 14 12 11 9 7 4 2 2 3 2 4 4 6 8 9 10 12 12 13 14 15 14 14 13 13 12
26 27 22 18 14 22 25 24 23 16 16 21 15 6 13 16 18 16 9 16 15 18 19 15 11 9 7 5 4 2 0 1 3 2 3 6 8 9 10 10 11 13 14 14 13 13 14 15 13
24 28 27 22 12 18 17 28 15 19 15 17 17 25 23 17 17 16 8 14 15 16 16 14 14 11 9 5 2 2 1 2 1 1 5 8 9 8 10 9 11 12 13 16 13 10 13 14 13
21 21 28 21 17 12 13 17 14 20 20 5 3 14 19 17 16 17 9 12 15 16 17 14 12 10 6 5 4 4 4 2 1 5 7 8 7 8 8 8 11 10 11 9 15 12 11 11 12
18 17 33 26 15 9 8 15 20 20 32 18 20 2 7 11 11 14 11 10 12 12 11 10 8 6 6 5 6 6 4 1 4 6 7 7 8 8 7 7 7 8 8 11 11 12 10 12 12
18 20 36 28 21 8 14 15 15 17 30 26 20 14 6 9 14 13 12 8 7 8 9 9 5 5 5 5 6 4 1 3 4 6 6 7 8 7 7 7 7 7 9 9 10 9 10 10 10
19 23 33 34 29 17 20 29 26 28 22 30 27 18 11 12 10 16 13 13 8 7 6 8 6 6 7 7 6 5 3 3 2 4 6 6 5 6 5 4 4 7 7 10 12 12 12 11 9
18 23 32 31 20 11 16 18 24 26 31 27 17 21 26 22 3 13 16 15 15 10 7 8 9 5 11 9 9 8 7 5 4 5 5 6 6 5 4 4 4 5 8 9 8 8 12 14 15
18 24 33 32 24 23 20 18 17 19 18 23 19 24 15 17 10 11 16 16 11 12 10 10 12 7 10 13 11 10 10 8 8 7 6 7 7 4 4 5 6 8 10 12 13 15 16 17 18
16 18 23 30 31 23 20 18 15 11 11 6 16 28 19 16 9 12 14 13 15 11 9 8 11 13 10 13 14 13 10 11 10 10 8 8 9 6 7 9 11 13 15 17 17 18 18 20 18
14 13 11 9 16 15 28 21 13 17 10 8 15 25 30 23 10 10 13 12 17 15 15 10 10 14 17 16 18 17 16 16 13 12 12 11 12 13 13 13 13 15 17 16 17 17 17 18 18
9 10 8 4 6 11 9 11 13 21 14 16 14 26 30 24 25 27 17 17 20 24 16 15 13 14 16 21 21 22 21 18 15 12 13 14 15 16 17 17 17 18 18 19 19 18 17 18 17
14 13 8 4 7 15 14 10 1 7 21 19 12 24 24 24 24 34 34 29 23 24 22 20 20 18 18 17 22 24 23 20 17 14 13 16 17 17 18 19 19 20 20 21 21 20 19 18 19
15 16 19 13 19 13 10 9 15 16 17 26 25 7 24 23 27 31 40 40 31 27 29 26 29 21 24 24 22 22 25 25 21 18 15 17 18 17 19 18 20 19 20 21 22 19 20 21 21
23 23 19 26 25 27 25 24 26 25 25 16 26 18 18 20 20 30 32 36 38 37 35 38 38 31 30 33 31 27 25 25 25 21 19 18 19 19 19 19 21 21 21 20 21 22 22 21 23
17 19 17 23 31 30 30 28 22 24 13 3 25 36 33 29 29 28 28 34 34 39 40 40 41 44 42 39 37 33 27 23 21 22 21 20 21 22 20 20 21 21 21 22 24 26 28 25 24
22 16 17 19 27 34 29 24 11 10 13 19 24 31 41 45 41 38 37 41 46 50 44 38 38 44 48 46 40 37 30 25 21 24 22 21 23 24 24 23 22 23 20 23 27 25 30 27 28
22 27 27 30 27 24 19 18 19 24 27 30 30 29 32 36 47 53 49 53 52 55 53 53 52 43 42 39 45 41 37 36 37 32 28 26 26 27 25 24 25 26 24 24 24 29 39 32 36
19 19 18 20 16 13 4 10 20 27 30 32 34 36 36 38 36 37 41 41 38 47 53 53 46 48 52 53 50 40 44 40 45 39 34 30 27 25 27 25 29 28 27 27 28 27 24 29 36
24 23 23 22 18 8 19 21 36 37 32 36 39 40 40 42 41 42 46 46 45 47 53 56 53 53 53 63 51 43 51 46 43 45 42 33 28 25 30 32 32 31 29 32 31 30 32 36 38
25 25 26 25 21 23 21 15 34 39 40 34 35 39 39 40 43 43 48 50 51 51 53 56 57 60 62 65 41 46 70 49 46 47 45 38 35 31 33 38 38 38 36 35 34 36 39 40 43
24 25 26 27 25 26 29 31 32 35 36 31 33 44 45 41 43 45 46 49 53 57 55 55 60 62 63 68 68 60 52 55 54 47 47 42 45 40 38 42 43 42 40 40 36 40 44 45 49
35 30 30 33 34 29 24 32 38 39 39 45 45 43 45 51 52 51 50 49 54 59 61 59 60 67 66 67 65 57 50 49 37 36 43 45 45 37 44 48 47 49 45 38 40 42 45 47 48
36 32 32 29 31 33 32 37 41 44 48 52 55 56 56 56 58 57 54 57 58 63 65 70 65 65 67 68 71 65 48 43 39 42 48 46 44 46 50 52 52 48 45 43 47 45 46 44 43
36 38 36 35 35 37 41 44 47 50 53 54 54 55 57 58 61 61 61 60 59 59 61 69 71 64 58 64 66 66 59 49 46 48 51 48 49 49 48 46 51 45 44 46 38 39 42 43 44
Wind_Direction
179 201 201 188 218 229 144 142 138 139 153 218 249 258 275 270 279 228 199 252 249 248 262 280 286 295 304 314 325 330 335 341 342 341 340 346 351 352 354 359 0 8 16 24 30 37 42 40 38
179 187 190 199 241 281 333 195 182 151 178 180 245 256 271 279 284 288 237 261 245 254 260 263 267 268 280 301 319 334 342 346 343 344 339 343 349 1 358 4 5 7 21 33 41 45 50 50 48
183 180 180 200 285 325 355 350 150 124 180 203 251 274 281 287 284 304 265 282 266 264 249 248 255 266 282 297 330 345 349 347 345 344 344 350 7 8 9 6 8 14 27 37 41 41 48 50 49
191 180 159 50 15 329 333 338 355 134 200 180 311 295 297 285 290 289 280 285 275 269 265 265 265 260 268 290 304 331 354 354 350 346 347 13 12 9 5 6 8 17 30 36 36 35 35 39 40
191 182 128 74 356 340 311 331 348 346 33 162 152 327 327 311 321 276 277 282 277 273 266 264 258 260 260 277 298 329 350 345 335 356 28 19 5 2 2 15 17 26 34 37 39 34 28 31 30
188 181 139 99 347 338 322 322 316 326 317 288 275 322 321 297 299 310 301 281 282 277 265 257 263 257 260 263 259 266 308 316 20 47 41 4 353 355 5 17 31 41 38 37 36 39 33 33 32
190 185 174 104 69 311 317 307 288 307 305 316 315 324 310 295 292 303 314 292 290 282 271 264 261 260 250 230 227 242 74 69 55 51 0 340 347 354 4 19 31 41 41 34 29 35 38 40 45
197 195 183 110 75 335 310 307 309 309 296 302 291 313 287 311 301 298 302 275 280 283 274 263 268 256 243 225 216 186 139 128 104 335 330 335 344 350 2 14 26 35 37 38 32 29 32 33 41
208 197 173 123 88 91 320 319 301 289 290 266 316 291 293 311 309 298 298 275 271 263 255 259 259 253 245 227 189 194 177 173 317 319 329 332 346 354 0 13 22 29 29 26 34 39 28 26 23
206 188 168 143 112 120 183 243 278 286 272 295 257 33 331 331 318 295 283 254 258 252 246 246 250 255 238 216 207 189 180 272 324 332 340 344 350 357 355 8 11 13 16 15 16 25 32 23 17
208 178 186 164 162 168 238 235 238 279 295 276 261 151 126 5 333 312 281 270 241 262 258 253 243 242 236 222 207 189 238 316 344 350 341 347 354 351 355 347 353 8 9 359 2 0 357 357 8
209 190 199 188 181 190 228 242 239 250 271 264 264 290 208 260 349 326 318 288 285 267 254 269 258 259 249 224 211 220 271 299 326 347 339 344 358 352 345 318 340 355 354 344 350 7 2 0 4
207 197 209 199 192 216 245 237 244 253 254 268 261 319 320 290 42 332 321 305 287 290 274 253 256 249 266 243 247 255 274 273 283 323 328 332 334 324 303 334 336 345 340 356 353 334 344 348 345
206 204 213 215 211 213 232 262 253 234 248 293 323 306 316 308 302 320 308 309 319 312 309 302 284 261 234 252 252 266 288 288 286 290 305 303 306 308 307 326 324 328 332 340 346 343 347 341 336
218 225 216 220 221 243 240 248 231 207 239 295 308 279 276 286 295 304 295 303 316 327 317 325 308 301 286 257 255 264 271 267 269 274 270 272 283 295 298 312 318 323 331 334 333 341 345 341 337
243 233 250 250 251 259 244 249 223 180 267 265 290 294 298 316 290 297 294 305 309 318 316 316 308 290 281 268 262 264 265 274 269 268 272 270 271 287 295 303 313 313 329 325 320 328 329 334 338
241 224 233 223 317 263 288 295 244 183 203 212 264 280 294 309 316 304 290 293 300 308 304 300 294 284 268 264 261 261 263 264 272 273 272 273 275 278 285 294 300 303 313 316 313 313 314 319 322
226 220 223 280 6 295 298 314 308 233 203 212 216 256 272 288 296 308 301 296 288 295 297 294 297 293 283 272 266 261 261 265 268 274 276 275 280 285 287 293 297 303 306 305 307 308 311 314 311
214 203 220 190 213 212 207 260 261 247 236 214 214 271 261 265 286 300 300 291 292 292 292 285 290 290 296 289 294 272 265 263 262 264 271 278 278 285 290 295 294 298 300 302 302 308 308 307 301
212 234 243 200 204 211 217 221 230 232 236 277 225 207 250 285 283 280 288 286 284 290 290 293 293 286 290 296 294 280 270 266 265 269 270 275 279 283 284 288 290 292 294 294 301 308 307 306 304
250 242 243 233 225 226 229 237 247 239 224 250 226 228 222 228 231 243 246 255 269 278 278 283 289 292 293 294 290 281 277 278 278 275 272 279 277 279 278 281 282 285 290 296 301 307 307 303 302
241 245 229 231 229 235 241 255 261 239 232 220 210 211 221 228 234 239 243 254 260 267 260 258 270 284 289 289 285 279 275 276 274 271 272 275 278 277 279 280 284 284 286 289 295 299 305 301 304
229 224 230 239 247 261 262 264 241 221 228 233 240 237 241 231 231 238 241 251 262 262 262 266 264 254 257 258 278 276 271 276 275 268 264 267 268 273 277 279 282 286 287 287 297 299 302 283 299
257 258 256 257 261 268 117 228 237 230 226 230 241 249 249 253 254 255 251 256 267 273 267 265 265 273 267 266 227 242 247 249 264 267 262 259 263 272 277 275 279 283 288 290 289 303 303 302 299
258 254 247 240 222 198 253 229 239 238 232 233 238 243 246 251 250 250 251 259 263 270 272 266 268 266 269 269 278 244 247 239 238 252 257 257 262 269 269 275 273 279 284 285 290 291 294 295 297
259 254 254 253 233 209 251 235 230 231 236 236 223 233 238 245 252 255 251 255 263 273 274 269 268 272 272 275 258 279 287 238 233 238 247 252 260 266 267 266 270 275 280 282 286 292 293 295 295
248 246 257 261 248 236 258 266 256 262 268 258 241 239 232 234 239 242 246 253 256 265 273 269 267 265 269 274 279 286 293 290 241 234 244 246 253 255 265 259 264 269 271 272 281 288 292 296 297
260 259 259 261 262 260 256 255 256 257 266 265 262 261 249 238 240 244 246 250 255 262 268 268 267 266 268 272 274 278 286 290 282 254 251 251 252 253 259 258 261 268 271 271 276 286 291 290 289
265 260 255 255 261 261 246 247 252 258 256 255 259 260 262 265 268 265 260 256 261 258 260 262 262 263 267 268 274 278 277 275 274 262 263 260 266 272 256 261 263 263 272 280 281 280 289 286 288
260 259 260 264 262 265 265 267 267 266 265 266 268 266 264 266 268 270 271 268 266 267 266 265 266 267 265 270 272 275 276 272 260 262 265 269 270 269 269 269 279 275 276 282 283 287 287 286 290
Height
5906 5907 5907 5910 5913 5910 5911 5909 5908 5904 5902 5915 5916 5917 5917 5916 5917 5923 5918 5915 5916 5917 5917 5918 5919 5919 5919 5919 5919 5919 5919 5918 5917 5916 5915 5913 5911 5909 5907 5904 5903 5901 5899 5897 5895 5894 5893 5892 5892
5906 5906 5907 5909 5912 5912 5908 5910 5899 5903 5907 5908 5916 5919 5919 5917 5919 5920 5917 5915 5917 5917 5917 5918 5918 5919 5918 5918 5918 5918 5918 5917 5916 5915 5913 5912 5910 5908 5906 5904 5903 5901 5899 5897 5896 5895 5894 5893 5892
5904 5906 5907 5906 5912 5906 5906 5903 5902 5904 5912 5914 5912 5918 5919 5916 5921 5921 5916 5918 5918 5918 5917 5917 5918 5918 5918 5918 5917 5917 5916 5915 5915 5913 5912 5911 5909 5908 5906 5905 5903 5901 5899 5898 5897 5896 5894 5893 5892
5901 5905 5910 5909 5907 5906 5906 5908 5909 5911 5914 5915 5914 5915 5917 5914 5917 5922 5917 5918 5918 5917 5917 5917 5918 5917 5917 5917 5916 5915 5914 5914 5913 5912 5912 5910 5909 5908 5906 5904 5902 5900 5899 5898 5897 5896 5895 5894 5893
5900 5903 5909 5908 5905 5904 5907 5908 5907 5909 5912 5914 5914 5914 5915 5913 5917 5918 5918 5918 5917 5916 5915 5916 5915 5916 5916 5915 5915 5914 5913 5912 5912 5911 5911 5909 5908 5907 5906 5903 5903 5902 5900 5899 5898 5896 5896 5895 5893
5897 5903 5907 5904 5904 5908 5909 5905 5907 5913 5915 5915 5912 5913 5912 5911 5915 5914 5916 5914 5916 5915 5914 5914 5913 5913 5914 5913 5913 5913 5912 5912 5911 5911 5910 5908 5907 5906 5905 5903 5903 5902 5901 5900 5898 5897 5897 5895 5893
5896 5899 5904 5904 5907 5900 5908 5908 5910 5912 5910 5912 5915 5913 5913 5911 5911 5912 5916 5911 5913 5913 5912 5912 5912 5911 5911 5911 5911 5911 5910 5910 5910 5910 5909 5908 5906 5905 5904 5903 5903 5901 5901 5900 5899 5898 5898 5897 5894
5896 5897 5902 5904 5909 5908 5905 5905 5905 5908 5909 5907 5913 5911 5911 5909 5909 5910 5914 5911 5911 5910 5910 5910 5910 5910 5909 5909 5909 5910 5910 5910 5910 5909 5909 5907 5906 5904 5903 5903 5902 5901 5902 5901 5899 5898 5898 5896 5894
5894 5896 5903 5902 5905 5912 5909 5901 5903 5905 5905 5903 5907 5911 5908 5907 5907 5906 5910 5908 5907 5908 5907 5907 5908 5908 5908 5908 5908 5909 5909 5909 5909 5909 5907 5906 5905 5905 5903 5903 5902 5902 5902 5901 5899 5898 5897 5895 5894
5892 5897 5899 5899 5903 5905 5912 5907 5900 5905 5904 5904 5909 5906 5906 5905 5904 5905 5908 5909 5905 5906 5905 5906 5907 5907 5907 5907 5908 5908 5908 5908 5908 5907 5906 5906 5905 5904 5904 5903 5902 5902 5901 5900 5898 5897 5896 5895 5894
5892 5898 5895 5895 5899 5902 5906 5910 5907 5905 5898 5905 5891 5894 5901 5903 5904 5903 5902 5906 5908 5905 5904 5905 5906 5906 5906 5907 5908 5907 5907 5907 5907 5906 5906 5905 5905 5904 5903 5903 5902 5902 5900 5898 5897 5896 5895 5894 5893
5888 5893 5894 5894 5895 5897 5902 5903 5907 5905 5907 5900 5899 5900 5899 5899 5900 5901 5901 5901 5905 5906 5906 5903 5904 5905 5906 5907 5906 5906 5906 5906 5905 5905 5905 5905 5904 5904 5904 5904 5902 5900 5899 5897 5896 5894 5895 5895 5893
5885 5889 5890 5890 5891 5895 5896 5900 5900 5899 5901 5897 5900 5897 5900 5903 5896 5899 5900 5900 5899 5901 5903 5903 5903 5905 5903 5905 5904 5904 5904 5904 5904 5903 5903 5903 5903 5904 5904 5902 5901 5900 5898 5898 5897 5897 5896 5893 5891
5881 5882 5886 5887 5888 5890 5892 5894 5895 5898 5898 5897 5894 5896 5900 5900 5897 5898 5901 5899 5898 5896 5898 5899 5900 5902 5904 5902 5903 5902 5901 5901 5901 5901 5901 5902 5902 5902 5901 5900 5899 5899 5898 5897 5896 5894 5892 5891 5889
5877 5879 5881 5882 5884 5887 5889 5889 5891 5894 5896 5896 5895 5895 5899 5901 5897 5897 5900 5899 5897 5897 5897 5897 5895 5894 5898 5898 5898 5899 5900 5900 5899 5899 5899 5899 5899 5899 5899 5898 5897 5896 5895 5893 5892 5891 5890 5889 5887
5875 5877 5880 5883 5884 5886 5885 5886 5889 5892 5889 5894 5893 5892 5893 5893 5894 5898 5898 5898 5896 5896 5894 5895 5893 5892 5892 5894 5894 5894 5895 5896 5897 5896 5895 5894 5895 5895 5896 5895 5894 5893 5893 5892 5890 5890 5888 5887 5885
5873 5873 5876 5879 5881 5882 5882 5884 5888 5888 5891 5897 5894 5893 5889 5889 5889 5893 5896 5897 5894 5893 5893 5892 5893 5891 5890 5889 5890 5890 5890 5891 5891 5892 5891 5891 5890 5891 5890 5891 5891 5889 5889 5888 5887 5886 5886 5885 5883
5869 5869 5871 5873 5878 5878 5879 5881 5885 5889 5889 5894 5897 5896 5890 5890 5888 5888 5887 5889 5891 5889 5889 5888 5890 5890 5888 5887 5886 5886 5886 5886 5888 5888 5887 5887 5887 5887 5886 5886 5886 5886 5885 5884 5883 5882 5882 5882 5879
5864 5863 5865 5871 5872 5875 5874 5879 5880 5883 5885 5888 5892 5894 5894 5893 5890 5888 5882 5881 5884 5885 5884 5884 5882 5886 5885 5884 5883 5881 5881 5881 5881 5882 5884 5883 5883 5883 5881 5882 5880 5881 5881 5879 5878 5878 5877 5876 5875
5858 5860 5864 5866 5867 5870 5872 5874 5875 5879 5883 5888 5892 5893 5891 5892 5892 5882 5879 5876 5877 5879 5880 5879 5877 5879 5880 5878 5877 5876 5874 5874 5874 5877 5877 5877 5876 5877 5876 5876 5874 5874 5874 5873 5872 5871 5871 5871 5869
5856 5858 5861 5864 5864 5864 5865 5868 5874 5880 5883 5886 5880 5878 5875 5874 5873 5872 5872 5869 5870 5871 5873 5874 5872 5870 5873 5874 5872 5871 5871 5870 5871 5869 5870 5869 5869 5869 5870 5869 5869 5868 5868 5867 5866 5865 5864 5864 5863
5849 5854 5853 5853 5855 5858 5861 5863 5871 5867 5865 5864 5863 5862 5864 5867 5865 5865 5864 5863 5860 5859 5858 5858 5866 5865 5865 5866 5867 5865 5865 5866 5866 5864 5863 5863 5861 5862 5862 5863 5863 5861 5861 5860 5859 5859 5857 5856 5856
5844 5842 5844 5846 5849 5852 5857 5859 5855 5853 5853 5855 5856 5859 5861 5862 5862 5861 5860 5861 5854 5850 5848 5849 5850 5854 5852 5851 5859 5860 5857 5858 5859 5859 5858 5857 5855 5854 5854 5856 5855 5853 5854 5852 5851 5851 5849 5847 5848
5839 5841 5841 5843 5846 5849 5849 5848 5844 5845 5846 5848 5849 5851 5854 5854 5855 5854 5852 5852 5849 5841 5839 5840 5846 5845 5837 5832 5800 5833 5838 5837 5846 5848 5851 5851 5849 5847 5846 5847 5845 5845 5846 5846 5844 5844 5843 5840 5840
5832 5834 5836 5837 5838 5844 5836 5835 5831 5833 5834 5836 5839 5841 5842 5843 5843 5843 5837 5838 5838 5834 5829 5831 5835 5837 5835 5833 5810 5824 5825 5825 5823 5831 5838 5843 5841 5839 5838 5838 5836 5836 5836 5836 5836 5836 5835 5832 5831
5825 5827 5827 5828 5832 5832 5824 5824 5818 5822 5826 5827 5828 5832 5835 5836 5836 5838 5832 5830 5830 5824 5823 5822 5824 5827 5820 5819 5819 5822 5816 5805 5809 5814 5821 5829 5830 5829 5830 5828 5825 5826 5826 5826 5826 5827 5826 5824 5822
5818 5819 5822 5822 5825 5827 5817 5814 5814 5812 5814 5818 5821 5822 5823 5824 5825 5827 5828 5823 5821 5819 5815 5816 5813 5815 5814 5807 5806 5809 5804 5790 5789 5797 5801 5811 5819 5818 5818 5817 5814 5813 5812 5814 5816 5816 5815 5814 5812
5811 5816 5816 5813 5813 5817 5811 5807 5805 5807 5807 5806 5805 5808 5810 5813 5813 5814 5815 5814 5811 5808 5804 5805 5803 5800 5802 5797 5795 5800 5801 5789 5788 5793 5791 5793 5803 5805 5806 5801 5801 5800 5800 5800 5802 5805 5805 5804 5802
5804 5806 5806 5808 5806 5803 5802 5801 5800 5800 5798 5796 5796 5797 5798 5798 5798 5798 5800 5801 5798 5794 5791 5786 5789 5789 5787 5788 5783 5786 5794 5794 5790 5789 5791 5787 5788 5793 5789 5787 5788 5788 5790 5792 5792 5792 5794 5793 5792
5792 5792 5795 5797 5799 5796 5790 5790 5787 5785 5785 5786 5788 5789 5789 5787 5786 5786 5784 5786 5786 5783 5779 5774 5773 5775 5777 5774 5774 5774 5775 5777 5777 5776 5774 5775 5777 5778 5780 5778 5779 5779 5779 5780 5780 5781 5782 5782 5781